Location: Boiro
(42.6475°N, 8.8834°W)
Time: 09:19:26
(UTC+02:00)

NANOSAT C BR1 - Pass Details

Date: 27 August 2022
Orbit: 582 x 600 km, 98.0° (Epoch: 25 September)

Event Time Altitude Azimuth Distance (km) Brightness Sun altitude
Rises 05:01:09 0° 10° (N) 2,826 ? -27.9°
Reaches altitude 10° 05:03:19 10° 8° (N) 1,918 ? -27.6°
Enters shadow 05:06:07 41° 357° (N) 857 ? -27.2°
